Epoch 2022 Aug. 9.0 TT = JDT 2459800.5
T 2021 Oct. 27.55128 TT Rudenko
q 2.5435663 (2000.0) P Q
n 0.14920318 Peri. 187.53078 -0.67026807 +0.74144228
a 3.5206052 Node 40.38931 -0.67830622 -0.59475283
e 0.2775202 Incl. 2.80296 -0.30106710 -0.31069666
P 6.61
From 255 observations 2015 Jan. 24-2022 June 10, mean residual 0".7.